Location: Newark
(29.9790°N, 31.1340°E)
Time: 19:46:30
(UTC+00:00)

Transit 2A Rocket - Pass Details

Date: 22 January 2020
Orbit: 592 x 911 km, 66.7° (Epoch: 16 February)

Event Time Altitude Azimuth Distance (km) Brightness Sun altitude
Rises 02:48:19 0° 187° (S) 2,910 8.0 -26.3°
Reaches altitude 10° 02:50:44 10° 179° (S) 1,971 7.2 -25.8°
Maximum altitude 02:54:49 38° 111° (ESE) 911 5.9 -24.9°
Drops below altitude 10° 02:58:47 10° 42° (NE) 1,922 7.5 -24.1°
Sets 03:01:07 0° 35° (NE) 2,827 8.3 -23.6°
